星链-5093 (STARLINK-5093 )

导读 | 豆包AI

STARLINK-5093是美国SpaceX公司星链(Starlink)低轨互联网星座中的卫星,于2023年4月27日由猎鹰9号火箭发射,属于星链第二代扩容批次的组网卫星。它运行在近地轨道,配备相控阵通信天线、霍尔推进系统,可支持高速卫星互联网接入,为全球偏远地区、移动场景提供低延迟宽带服务,也因星链星座的快速扩展,引发轨道资源与天文观测相关讨论。

基本信息
目录编号:
56332
目录名称:
STARLINK-5093
国际标识:
2023-058R
轨道中心:
EARTH
卫星名称:
星链-5093
卫星全名:
星链-5093 (STARLINK-5093 )
卫星状态:
在轨 (已飞行1053 天)
发射日期:
2023-04-27 UTC
国别 :
美国 (US)
星等 :
--
轨道信息
数据来源 国际轨道数据
星历时间: 2026-03-15T12:41:33+0800
15小时前
查看轨道信息
半长轴: 6939.259km
偏心率: 0.0001335
轨道倾角: 97.603°
近地点辐角 100.328°
升交点赤经 75.558°
平近点角 259.810°
近地点: 560.195km
远地点: 562.049km
周期: 95.880分钟
每日圈数: 15.018727
详细信息
固有亮度:
5
最大亮度:
2.5
卫星平台:
Starlink v1.5
覆盖范围:
全球
运营商:
太空探索技术公司
运营商所在国:
美国
制造商(研发单位):
太空探索技术公司
制造商所在国:
美国
使用方式:
暂无
卫星简介
星链(Starlink)计划是由太空探索技术公司(SpaceX)提出的一个巨型低轨卫星互联网星座项目,计划在2019年至2024年间在太空搭建由约1.2万颗卫星组成的“星链”网络,其中1584颗将部署在地球上空550千米处的近地轨道,并从2020年开始工作。该卫星仍在工作。
2D轨道图
3D轨道图
轨道高度分析图
轨道倾角分析图
轨道综合分析图
查看轨道综合分析图